Terminal Aerodrome Forecast
Issued by NWS

Home | Current Version | Previous Version | Text Only | Print | Product List | Glossary On
Versions: 1 2 3 4 5 6 7 8 9 10 11 12 13 14 15 16 17 18
000
FTUS46 KSGX 281100
TAFSNA
TAF
KSNA 281120Z 2812/2912 VRB03KT P6SM VCTS SCT100CB BKN200
     FM281500 VRB03KT P6SM VCSH SCT150 BKN250
     FM282000 23008KT P6SM SCT100 SCT250
     FM290300 VRB03KT P6SM SCT010 SCT250=

USA.gov is the U.S. government's official web portal to all federal, state and local government web resources and services.